Weather History for PFKT - August, 2014

Change the Weather History Date:

Sunday, August 10, 2014

  Actual Average Record
Temperature  
Mean Temperature 67 °F -  
Max Temperature 73 °F - - ()
Min Temperature 61 °F - - ()
Cooling Degree Days 2    
Growing Degree Days 17 (Base 50)    
Moisture  
Dew Point 54 °F    
Average Humidity 63    
Maximum Humidity 81    
Minimum Humidity 48    
Precipitation  
Precipitation 0.00 in - - ()
Sea Level Pressure  
Sea Level Pressure 29.68 in    
Wind  
Wind Speed 13 mph (ESE)    
Max Wind Speed 24 mph    
Max Gust Speed 22 mph    
Visibility 10 miles    
Events      
T = Trace of Precipitation, MM = Missing Value Source: NWS Daily Summary

Daily Weather History Graph

Daily Weather History Graph

Search for Another Location

Airport or City:

Trip Planner

Search our weather history database for the weather conditions in past years. The results will help you decide how hot, cold, wet, or windy it might be!

Date:

Astronomy

Aug. 10, 2014 Rise Set
Actual Time 6:32 AM AKDT 11:47 PM AKDT
Civil Twilight 5:12 AM AKDT 1:05 AM AKDT
Nautical Twilight Sun does not rise Sun does not rise
Astronomical Twilight Sun does not rise Sun does not rise
Moon 10:56 PM AKDT (8/10) 7:09 AM AKDT (8/10)
Length of Visible Light 19h 52m
Length of Day
17h 14m
Full, 100% of the Moon is Illuminated
Aug 10
Full
Aug 17
Last Quarter
Aug 25
New
Sep 2
First Quarter
Sep 8
Full

Hourly Weather History & Observations

Time (AKDT) Temp. Dew Point Humidity Pressure Visibility Wind Dir Wind Speed Gust Speed Precip Events Conditions
12:58 AM 64.9 °F 50.0 °F 58% 29.66 in 10.0 mi NE 24.2 mph - N/A   Mostly Cloudy
1:58 AM 61.0 °F 52.0 °F 72% 29.67 in 10.0 mi NE 17.3 mph - 0.00 in   Clear
2:58 AM 66.0 °F 48.9 °F 54% 29.68 in 10.0 mi ENE 12.7 mph 21.9 mph N/A   Clear
3:58 AM 63.0 °F 51.1 °F 65% 29.68 in 10.0 mi East 13.8 mph - N/A   Partly Cloudy
4:58 AM 61.0 °F 50.0 °F 67% 29.69 in 10.0 mi East 12.7 mph - N/A   Mostly Cloudy
5:58 AM 63.0 °F 51.1 °F 65% 29.69 in 10.0 mi ESE 10.4 mph - N/A   Overcast
6:58 AM 63.0 °F 51.1 °F 65% 29.69 in 10.0 mi East 9.2 mph - N/A   Overcast
8:58 AM 64.0 °F 52.0 °F 65% 29.69 in 10.0 mi ESE 4.6 mph - N/A   Mostly Cloudy
9:58 AM 64.9 °F 52.0 °F 63% 29.70 in 10.0 mi ESE 5.8 mph - N/A   Overcast
10:58 AM 64.0 °F 54.0 °F 70% 29.70 in 10.0 mi SE 9.2 mph - N/A   Clear
11:58 AM 66.0 °F 54.0 °F 65% 29.70 in 10.0 mi SSE 6.9 mph - N/A   Clear
12:58 PM 68.0 °F 53.1 °F 59% 29.69 in 10.0 mi ESE 5.8 mph - N/A   Clear
1:58 PM 71.1 °F 55.0 °F 57% 29.69 in 10.0 mi SE 10.4 mph - N/A   Clear
2:58 PM 72.0 °F 55.0 °F 55% 29.68 in 10.0 mi SE 10.4 mph - N/A   Clear
3:58 PM 73.9 °F 53.1 °F 48% 29.68 in 10.0 mi SE 10.4 mph - N/A   Clear
4:58 PM 73.0 °F 54.0 °F 51% 29.68 in 10.0 mi SW 5.8 mph - N/A   Clear
5:58 PM 66.9 °F 59.0 °F 76% 29.68 in 10.0 mi SW 11.5 mph - N/A   Clear
6:58 PM 68.0 °F 55.9 °F 65% 29.68 in 10.0 mi West 4.6 mph - N/A   Clear
7:58 PM 64.9 °F 59.0 °F 81% 29.70 in 10.0 mi South 8.1 mph - N/A   Mostly Cloudy
8:58 PM 69.1 °F 54.0 °F 58% 29.68 in 10.0 mi Variable 4.6 mph - N/A   Mostly Cloudy
9:58 PM 68.0 °F 57.0 °F 68% 29.68 in 10.0 mi ESE 8.1 mph - N/A   Overcast
10:58 PM 69.1 °F 55.0 °F 61% 29.68 in 10.0 mi NE 5.8 mph - N/A   Overcast
11:58 PM 68.0 °F 55.9 °F 65% 29.68 in 10.0 mi ESE 5.8 mph - N/A   Overcast